Weather History for Lee's Summit, MO

Change the Weather History Date:

Tuesday, May 28, 2013

  Actual Average (KMKC) Record (KMKC)
Temperature  
Mean Temperature 73 °F -  
Max Temperature 77 °F 76 °F 91 °F (1998)
Min Temperature 69 °F 57 °F 52 °F (2005)
Cooling Degree Days 8    
Growing Degree Days 23 (Base 50)    
Moisture  
Dew Point 66 °F    
Average Humidity 78    
Maximum Humidity 88    
Minimum Humidity 69    
Precipitation  
Precipitation 0.12 in - - ()
Sea Level Pressure  
Sea Level Pressure 29.74 in    
Wind  
Wind Speed 11 mph (South)    
Max Wind Speed 16 mph    
Max Gust Speed 28 mph    
Visibility 10 miles    
Events Rain , Thunderstorm    
Averages and records for this station are not official NWS values.
T = Trace of Precipitation, MM = Missing Value Source: NWS Daily Summary

Daily Weather History Graph

Daily Weather History Graph

Search for Another Location

Airport:

Trip Planner

Search our weather history database for the weather conditions in past years. The results will help you decide how hot, cold, wet, or windy it might be!

Date:

Astronomy

May. 28, 2013 Rise Set
Actual Time 5:55 AM CDT 8:34 PM CDT
Civil Twilight 5:24 AM CDT 9:05 PM CDT
Nautical Twilight 4:45 AM CDT 9:44 PM CDT
Astronomical Twilight 4:01 AM CDT 10:28 PM CDT
Moon 11:59 PM CDT 9:43 AM CDT
Length of Visible Light 15h 41m
Length of Day
14h 38m
Waning Gibbous, 82% of the Moon is Illuminated
May 28
Waning Gibbous
May 31
Last Quarter
Jun 8
New
Jun 16
First Quarter
Jun 23
Full

Hourly Weather History & Observations

Time (CDT) Temp. Dew Point Humidity Pressure Visibility Wind Dir Wind Speed Gust Speed Precip Events Conditions
12:53 AM 75.0 °F 64.0 °F 69% 29.67 in 10.0 mi South 13.8 mph 21.9 mph N/A   Scattered Clouds
1:39 AM 73.4 °F 64.4 °F 73% 29.67 in 10.0 mi SSW 12.7 mph 21.9 mph N/A Thunderstorm Overcast
1:53 AM 75.0 °F 64.0 °F 69% 29.67 in 10.0 mi SSW 13.8 mph 21.9 mph N/A Thunderstorm Overcast
2:12 AM 73.4 °F 64.4 °F 73% 29.71 in 10.0 mi SSW 15.0 mph 20.7 mph N/A   Overcast
2:30 AM 73.4 °F 64.4 °F 73% 29.71 in 10.0 mi SW 16.1 mph 24.2 mph N/A Thunderstorm Overcast
2:45 AM 73.4 °F 64.4 °F 73% 29.72 in 10.0 mi SW 13.8 mph 23.0 mph N/A   Overcast
2:53 AM 73.9 °F 64.9 °F 73% 29.70 in 10.0 mi SSW 11.5 mph 21.9 mph N/A   Overcast
3:53 AM 73.0 °F 64.9 °F 76% 29.70 in 10.0 mi SSW 8.1 mph - N/A   Overcast
4:53 AM 73.0 °F 64.9 °F 76% 29.70 in 10.0 mi South 5.8 mph - N/A   Overcast
5:53 AM 71.1 °F 64.9 °F 81% 29.70 in 10.0 mi South 5.8 mph - N/A   Overcast
6:53 AM 71.1 °F 64.9 °F 81% 29.72 in 10.0 mi ESE 3.5 mph - N/A   Overcast
7:02 AM 69.8 °F 64.4 °F 83% 29.75 in 10.0 mi ESE 4.6 mph - N/A   Overcast
7:53 AM 71.1 °F 64.9 °F 81% 29.73 in 10.0 mi Calm Calm - N/A   Overcast
8:53 AM 73.0 °F 66.0 °F 79% 29.73 in 10.0 mi South 6.9 mph - N/A   Overcast
9:53 AM 75.0 °F 66.9 °F 76% 29.73 in 10.0 mi South 11.5 mph - N/A   Overcast
10:18 AM 77.0 °F 68.0 °F 74% 29.74 in 10.0 mi South 13.8 mph 20.7 mph N/A   Scattered Clouds
10:32 AM 75.2 °F 66.2 °F 73% 29.73 in 10.0 mi SSW 12.7 mph 27.6 mph N/A   Mostly Cloudy
10:53 AM 77.0 °F 68.0 °F 74% 29.71 in 10.0 mi SSW 12.7 mph 20.7 mph N/A   Overcast
11:53 AM 75.0 °F 68.0 °F 79% 29.72 in 10.0 mi South 16.1 mph 20.7 mph N/A   Overcast
12:53 PM 73.9 °F 68.0 °F 82% 29.74 in 10.0 mi SSW 12.7 mph 20.7 mph N/A   Overcast
1:36 PM 73.4 °F 66.2 °F 78% 29.73 in 10.0 mi SSW 15.0 mph 21.9 mph N/A   Partly Cloudy
1:53 PM 73.9 °F 66.9 °F 79% 29.72 in 10.0 mi SW 10.4 mph 18.4 mph N/A   Scattered Clouds
2:23 PM 73.4 °F 66.2 °F 78% 29.76 in 10.0 mi South 9.2 mph - 0.00 in Rain , Thunderstorm Light Rain
2:53 PM 72.0 °F 68.0 °F 87% 29.74 in 5.0 mi SSW 6.9 mph - 0.07 in Rain , Thunderstorm Thunderstorms and Rain
3:23 PM 73.4 °F 69.8 °F 88% 29.77 in 8.0 mi South 5.8 mph - 0.01 in   Mostly Cloudy
3:53 PM 75.0 °F 70.0 °F 84% 29.74 in 10.0 mi South 9.2 mph 17.3 mph 0.01 in   Scattered Clouds
4:53 PM 75.0 °F 68.0 °F 79% 29.73 in 10.0 mi South 12.7 mph 23.0 mph N/A   Mostly Cloudy
5:53 PM 75.0 °F 66.9 °F 76% 29.75 in 10.0 mi SSE 9.2 mph - N/A   Overcast
6:53 PM 75.0 °F 66.9 °F 76% 29.71 in 10.0 mi SSE 9.2 mph - N/A   Partly Cloudy
7:53 PM 73.9 °F 66.9 °F 79% 29.74 in 10.0 mi South 12.7 mph 19.6 mph N/A   Overcast
8:53 PM 75.0 °F 66.0 °F 73% 29.77 in 10.0 mi South 6.9 mph - N/A   Overcast
9:10 PM 75.2 °F 66.2 °F 73% 29.80 in 10.0 mi South 8.1 mph - N/A Thunderstorm Overcast
9:25 PM 75.2 °F 66.2 °F 73% 29.81 in 9.0 mi South 6.9 mph - N/A   Overcast
9:35 PM 73.4 °F 66.2 °F 78% 29.81 in 9.0 mi South 8.1 mph - 0.01 in Rain , Thunderstorm Light Thunderstorms and Rain
9:50 PM 71.6 °F 66.2 °F 83% 29.81 in 8.0 mi South 9.2 mph - 0.03 in Rain Rain
9:53 PM 72.0 °F 66.9 °F 84% 29.78 in 8.0 mi South 10.4 mph - 0.03 in Rain Light Rain
10:53 PM 72.0 °F 66.9 °F 84% 29.81 in 10.0 mi South 6.9 mph - 0.01 in   Overcast
11:53 PM 73.0 °F 66.9 °F 81% 29.82 in 10.0 mi Calm Calm - N/A   Overcast